Location: Wien
(48.2082°N, 16.3738°E)
Time: 20:25:39
(UTC+02:00)

MOZHAYETS 4 - Pass Details

Date: 04 May 2024
Orbit: 652 x 670 km, 98.3° (Epoch: 20 May)

Event Time Altitude Azimuth Distance (km) Brightness Sun altitude
Rises 04:15:06 0° 170° (S) 3,005 10.8 -11.4°
Reaches altitude 10° 04:17:20 10° 173° (S) 2,095 10.0 -11.1°
Maximum altitude 04:21:54 70° 257° (WSW) 716 7.7 -10.5°
Drops below altitude 10° 04:26:30 10° 342° (NNW) 2,106 10.5 -9.9°
Sets 04:28:45 0° 344° (NNW) 3,021 11.4 -9.6°
